Weather reports worldwide

Advertisment
Mte.Calamita, Italy (16197): temperature & dewpoint: 15.05.2019 16:00:00 - 21.05.2019 16:00:00 (CEST)Mte.Calamita, Italy (16197): wind speed: 15.05.2019 16:00:00 - 21.05.2019 16:00:00 (CEST)Mte.Calamita, Italy (16197): wind direction: 15.05.2019 16:00:00 - 21.05.2019 16:00:00 (CEST)Mte.Calamita, Italy (16197): reduced air pressure: 15.05.2019 16:00:00 - 21.05.2019 16:00:00 (CEST)Mte.Calamita, Italy (16197): visibility: 15.05.2019 16:00:00 - 21.05.2019 16:00:00 (CEST)Mte.Calamita, Italy (16197): sunshine duration: 15.05.2019 16:00:00 - 21.05.2019 16:00:00 (CEST)
Date & Time tt [°C] td [°C] ff [km/h] ff [kn] dd ppp [hPa] vv [km] sd [min]
21.05.2019 16:00:00 - - - - - - - -
21.05.2019 15:00:00 18,0 13,0 15 8 SSE - 10 -
21.05.2019 14:00:00 18,2 11,5 18 10 S 1011,0 20 60
21.05.2019 13:00:00 18,0 13,0 13 7 SSE - 10 -
21.05.2019 12:00:00 17,0 14,0 9 5 SE - 10 -
21.05.2019 11:00:00 15,4 13,1 11 6 SSE 1010,7 15 60
21.05.2019 10:00:00 14,0 12,0 5 3 ESE - 10 -
21.05.2019 09:00:00 13,0 12,0 5 3 SSE - 10 -
21.05.2019 08:00:00 12,2 10,9 5 3 SSE 1009,4 10 18
21.05.2019 07:00:00 12,0 10,0 9 5 SSE - 10 -
21.05.2019 06:00:00 - - - - - - - -
21.05.2019 05:00:00 - - - - - - - -
21.05.2019 04:00:00 - - - - - - - -
21.05.2019 03:00:00 - - - - - - - -
21.05.2019 02:00:00 - - - - - - - -
21.05.2019 01:00:00 - - - - - - - -
21.05.2019 00:00:00 - - - - - - - -
20.05.2019 23:00:00 - - - - - - - -
20.05.2019 22:00:00 - - - - - - - -
20.05.2019 21:00:00 - - - - - - - -
20.05.2019 20:00:00 13,6 13,3 9 5 S 1007,8 7 0
20.05.2019 19:00:00 14,0 14,0 18 10 S - 4,0 -
20.05.2019 18:00:00 14,0 14,0 24 13 S - 10 -
20.05.2019 17:00:00 16,0 14,9 24 13 S 1006,7 10 0
20.05.2019 16:00:00 16,0 12,0 24 13 SSW - 10 -
20.05.2019 15:00:00 16,0 14,0 18 10 SSW - 10 -
20.05.2019 14:00:00 16,0 12,2 13 7 S 1006,6 25 60
20.05.2019 13:00:00 - - - - - - - -
20.05.2019 12:00:00 15,0 10,0 8 4 E - 10 -
20.05.2019 11:00:00 14,2 10,0 8 4 E 1006,4 25 60
20.05.2019 10:00:00 13,0 9,0 8 4 SE - 10 -
20.05.2019 09:00:00 12,0 10,0 13 7 E - 10 -
20.05.2019 08:00:00 11,8 10,9 8 4 SSE 1006,1 - 0
20.05.2019 07:00:00 11,0 11,0 9 5 ESE - - -
20.05.2019 06:00:00 - - - - - - - -
20.05.2019 05:00:00 - - - - - - - -
20.05.2019 04:00:00 - - - - - - - -
20.05.2019 03:00:00 - - - - - - - -
20.05.2019 02:00:00 - - - - - - - -
20.05.2019 01:00:00 - - - - - - - -
20.05.2019 00:00:00 - - - - - - - -
19.05.2019 23:00:00 - - - - - - - -
19.05.2019 22:00:00 - - - - - - - -
19.05.2019 21:00:00 - - - - - - - -
19.05.2019 20:00:00 13,6 12,8 0 0 N 1005,0 20 0
19.05.2019 19:00:00 14,0 12,0 0 0 N - 10 -
19.05.2019 18:00:00 15,0 12,0 0 0 N - 10 -
19.05.2019 17:00:00 14,8 11,8 0 0 N 1004,5 20 18
19.05.2019 16:00:00 15,0 13,0 5 3 W - 10 -
19.05.2019 15:00:00 16,0 11,0 5 3 W - 10 -
19.05.2019 14:00:00 15,0 10,2 18 10 W 1003,7 25 48
19.05.2019 13:00:00 14,0 10,0 13 7 NNW - 10 -
19.05.2019 12:00:00 13,0 11,0 0 0 N - 10 -
19.05.2019 11:00:00 12,6 10,3 5 3 N 1003,7 20 0
19.05.2019 10:00:00 11,0 9,0 0 0 N - 10 -
19.05.2019 09:00:00 11,0 9,0 13 7 N - 10 -
19.05.2019 08:00:00 11,0 9,1 22 12 N 1003,3 - 0
19.05.2019 07:00:00 11,0 9,0 18 10 N - - -
19.05.2019 06:00:00 - - - - - - - -
19.05.2019 05:00:00 - - - - - - - -
19.05.2019 04:00:00 - - - - - - - -
19.05.2019 03:00:00 - - - - - - - -
19.05.2019 02:00:00 - - - - - - - -
19.05.2019 01:00:00 - - - - - - - -
19.05.2019 00:00:00 - - - - - - - -
18.05.2019 23:00:00 - - - - - - - -
18.05.2019 22:00:00 - - - - - - - -
18.05.2019 21:00:00 - - - - - - - -
18.05.2019 20:00:00 14,0 12,4 0 0 N 1003,1 15 0
18.05.2019 19:00:00 14,0 12,0 0 0 N - 10 -
18.05.2019 18:00:00 15,0 13,0 0 0 N - 10 -
18.05.2019 17:00:00 16,0 12,0 9 5 SW 1001,5 15 60
18.05.2019 16:00:00 15,0 13,0 13 7 S - 10 -
18.05.2019 15:00:00 15,0 12,0 18 10 S - 10 -
18.05.2019 14:00:00 14,8 12,3 24 13 S 1001,7 15 48
18.05.2019 13:00:00 15,0 12,0 18 10 S - 10 -
18.05.2019 12:00:00 14,0 12,0 18 10 S - 10 -
18.05.2019 11:00:00 13,4 11,5 5 3 SSW 1001,1 10 0
18.05.2019 10:00:00 12,0 10,0 11 6 SSW - - -
18.05.2019 09:00:00 12,0 10,0 15 8 SSE - - -
18.05.2019 08:00:00 11,6 9,7 13 7 SSE 1000,1 - 0
18.05.2019 07:00:00 11,0 10,0 16 9 S - - -
18.05.2019 06:00:00 - - - - - - - -
18.05.2019 05:00:00 - - - - - - - -
18.05.2019 04:00:00 - - - - - - - -
18.05.2019 03:00:00 - - - - - - - -
18.05.2019 02:00:00 - - - - - - - -
18.05.2019 01:00:00 - - - - - - - -
18.05.2019 00:00:00 - - - - - - - -
17.05.2019 23:00:00 - - - - - - - -
17.05.2019 22:00:00 - - - - - - - -
17.05.2019 21:00:00 - - - - - - - -
17.05.2019 20:00:00 12,6 12,6 22 12 S 1005,2 15 0
17.05.2019 19:00:00 13,0 12,0 24 13 S - 10 -
17.05.2019 18:00:00 13,0 12,0 22 12 SSE - 10 -
17.05.2019 17:00:00 13,0 11,6 18 10 SSE 1006,4 20 0
17.05.2019 16:00:00 14,0 11,0 22 12 S - 10 -
17.05.2019 15:00:00 13,0 12,0 24 13 S - 10 -
17.05.2019 14:00:00 13,2 11,6 21 11 S 1007,8 20 0
17.05.2019 13:00:00 13,0 12,0 21 11 S - 10 -
17.05.2019 12:00:00 13,0 11,0 21 11 S - 10 -
17.05.2019 11:00:00 13,0 11,9 21 11 S 1008,0 30 18
17.05.2019 10:00:00 13,0 9,0 11 6 SSE - 10 -
17.05.2019 09:00:00 - - - - - - - -
17.05.2019 08:00:00 10,8 5,6 0 0 N 1008,6 30 0
17.05.2019 07:00:00 10,0 9,0 0 0 N - 10 -
17.05.2019 06:00:00 - - - - - - - -
17.05.2019 05:00:00 - - - - - - - -
17.05.2019 04:00:00 - - - - - - - -
17.05.2019 03:00:00 - - - - - - - -
17.05.2019 02:00:00 - - - - - - - -
17.05.2019 01:00:00 - - - - - - - -
17.05.2019 00:00:00 - - - - - - - -
16.05.2019 23:00:00 - - - - - - - -
16.05.2019 22:00:00 - - - - - - - -
16.05.2019 21:00:00 - - - - - - - -
16.05.2019 20:00:00 15,0 8,5 0 0 N 1009,5 30 60
16.05.2019 19:00:00 16,0 9,0 5 3 N - 10 -
16.05.2019 18:00:00 17,0 9,0 0 0 N - 10 -
16.05.2019 17:00:00 17,0 8,4 8 4 NNE 1009,1 30 60
16.05.2019 16:00:00 16,0 8,0 13 7 NNW - 10 -
16.05.2019 15:00:00 15,0 8,0 13 7 N - 10 -
16.05.2019 14:00:00 14,0 8,0 8 4 NNW 1010,3 30 60
16.05.2019 13:00:00 15,0 7,0 8 4 NNW - 10 -
16.05.2019 12:00:00 15,0 6,0 9 5 N - 10 -
16.05.2019 11:00:00 12,4 5,8 11 6 NNE 1010,6 30 60
16.05.2019 10:00:00 11,0 6,0 5 3 N - 10 -
16.05.2019 09:00:00 10,0 5,0 9 5 N - 10 -
16.05.2019 08:00:00 8,2 4,4 8 4 NNE 1010,4 30 30
16.05.2019 07:00:00 7,0 4,0 8 4 NNE - 10 -
16.05.2019 06:00:00 - - - - - - - -
16.05.2019 05:00:00 - - - - - - - -
16.05.2019 04:00:00 - - - - - - - -
16.05.2019 03:00:00 - - - - - - - -
16.05.2019 02:00:00 - - - - - - - -
16.05.2019 01:00:00 - - - - - - - -
16.05.2019 00:00:00 - - - - - - - -
15.05.2019 23:00:00 - - - - - - - -
15.05.2019 22:00:00 - - - - - - - -
15.05.2019 21:00:00 - - - - - - - -
15.05.2019 20:00:00 8,8 7,7 0 0 N 1009,6 20 0
15.05.2019 19:00:00 9,0 8,0 0 0 N - 10 -
15.05.2019 18:00:00 8,0 7,0 0 0 N - 10 -
15.05.2019 17:00:00 9,2 9,1 0 0 N 1009,2 20 0
15.05.2019 16:00:00 10,0 7,0 5 3 - - 10 -

tt = temperature
td = dewpoint
ff = wind speed
dd = wind direction
ppp = reduced air pressure
vv = visibility
sd = sunshine duration

Next stations